Overview Statistics Trail Chart Weather Telemetry Raw packets
 

This is the latest recevied weather packets stored in our database for station/object KB1JL-13. If no packets are shown the sender has not sent any weather packets the latest 10 day(s).

<< 105 106 107 108 109 110 111 >>
Time Temp. Humidity Pressure Rain* Wind** Luminosity Snow
1787784429 22.78° C 76% 1029.1 hPa 0 mm - 27 W/m² -
1787784129 23.33° C 75% 1029.1 hPa 0 mm - 26 W/m² -
1787783825 23.33° C 75% 1029.5 hPa 0 mm - 27 W/m² -
1787783520 23.89° C 74% 1029.1 hPa 0 mm - 29 W/m² -
1787783215 23.89° C 74% 1029.5 hPa 0 mm - 46 W/m² -
1787782915 23.89° C 77% 1029.1 hPa 0 mm - 36 W/m² -
1787782609 23.89° C 76% 1029.1 hPa 0 mm - 46 W/m² -
1787782304 24.44° C 74% 1029.5 hPa 0 mm - 43 W/m² -
1787782000 24.44° C 72% 1029.1 hPa 0 mm - 52 W/m² -
1787781695 24.44° C 75% 1029.1 hPa 0 mm - 45 W/m² -
1787781393 25° C 72% 1029.1 hPa 0 mm - 48 W/m² -
1787781092 25° C 71% 1029.1 hPa 0 mm - 48 W/m² -
1787780790 25° C 70% 1029.1 hPa 0 mm - 53 W/m² -
1787780484 25° C 71% 1029.5 hPa 0 mm - 193 W/m² -
1787780181 25° C 70% 1029.1 hPa 0 mm - 211 W/m² -
1787779876 25° C 72% 1029.1 hPa 0 mm - 222 W/m² -
1787779576 25° C 71% 1029.1 hPa 0 mm - 54 W/m² -
1787779270 25.56° C 73% 1029.1 hPa 0 mm - 255 W/m² -
1787778965 25.56° C 71% 1029.1 hPa 0 mm - 130 W/m² -
1787778661 25.56° C 70% 1029.1 hPa 0 mm - 130 W/m² -
1787778355 25.56° C 69% 1029.5 hPa 0 mm - 298 W/m² -
1787778052 25.56° C 68% 1029.1 hPa 0 mm - 308 W/m² -
1787777745 26.11° C 69% 1029.5 hPa 0 mm - 323 W/m² -
1787777443 26.67° C 70% 1029.1 hPa 0 mm - 339 W/m² -
1787777142 26.11° C 69% 1029.5 hPa 0 mm - 356 W/m² -

* Rain latest hour (hover to see other rain measurements)
** Current wind speed in m/s (hover to see current wind gust speed)